Tracking 30009 objects as of 7-Dec-2024
HD Live streaming from Space Station
objects crossing your sky now

STARLINK-30378

Track STARLINK-30378 now!
10-day predictions
STARLINK-30378 is classified as:


NORAD ID: 57787
Int'l Code: 2023-134S
Perigee: 565.4 km
Apogee: 567.1 km
Inclination: 43.0 °
Period: 95.8 minutes
Semi major axis: 6937 km
RCS: Unknown
Launch date: September 4, 2023
Source: United States (US)
Launch site: AIR FORCE EASTERN TEST RANGE (AFETR)
Your satellite tracking list
Your tracking list is empty




NASA's NSSDC Master Catalog

Two Line Element Set (TLE):
1 57787U 23134S   24341.90836957 -.00000355  00000-0 -11218-4 0  9990
2 57787  43.0033 164.5680 0001210 270.0573  90.0131 15.02533809 70611
Source of the keplerian elements: AFSPC